STARLINK-30480, 58069

Orbit data source: Space-Track

STARLINK-30480, 58069 is a payload satellite owned by SpaceX/Seattle (US) in LEO that was launched on Fri, 13 Oct 2023 UTC via an FALCON 9 launch vehicle from the Air Force Eastern Test Range (AFETR). Payload-class satellites include a variety of spacecraft equipped with specific instruments for various scientific and technological missions. These include communications satellites like Starlink; space stations such as the ISS; scientific satellites like the Hubble; Earth observation satellites from companies like Planet Labs, Umbra, and HawkEye 360; GPS; miniature CubeSats for education and research; and military/defense satellites.

Loading next visibility...
Identifier
58069, 2023-158U
Orbit
LEO
Country
Flag of USUS
Related business
Manufacturer
SpaceX/Seattle
Mission
Operational Commercial Communications
Bus & Motor
STARLINK V2M, Unknown motor
Mass
730 kg wet, ~700 kg dry
Launch date (UTC)
2023-10-13 (3 years ago)
Launch vehicle
FALCON 9
Launch site
Air Force Eastern Test Range (AFETR)
Object type
Payload
Rocket body
Debris
Shape & HBR
Box + 2 Pan, 17.7 m
Radar Cross Section
33.884 m², Large (>1 m²)

Expand to show TLE details & history
Last TLE update: 2 days ago

TLE from 2 days ago
0 STARLINK-30480
1 58069U 23158U   26170.97027016 -.00001350  00000-0 -39521-4 0  9990
2 58069  43.0029  27.2060 0001020 253.5606 106.5134 15.27592020150880
Epoch: 2026-06-19T23:17Z
TLE epoch observation values (Epoch: 2026-06-19T23:17:11.341Z)
Latitude
-0.00001°
Longitude
129.71713°
Altitude
482.988 km
Speed
7.626 km/s
True Right ascension
01h 48m 49s
True Declination
0° 00' 00"
Sunlit
Object was in daylight at epoch
Visualization orbit readout
Latitude
Unknown
Longitude
Unknown
Altitude
Unknown
Speed
Unknown
Apparent Right ascension
Unknown
Apparent Declination
Unknown
Sunlit
N/A
Visualization observer readout
Local Sidereal Time
21:28:51
Azimuth
Unknown
Elevation
Unknown
Doppler factor
Unknown
Orbital elements
Apogee altitude
485.658 km
Perigee altitude
484.258 km
Semi-major axis
6,863.095 km
Eccentricity
0.0001
Inclination
43.0029°
RAAN
27.206°
Arg. of periapsis
253.5606°
True anomaly
106.52461°
Mean anomaly
106.5134°
Eccentric anomaly
106.519°
Mean motion
3.81736 °/min
Orbital period
94.31 mins
BSTAR
-0.000039521
Loading maneuver chart data...
Computing Atmospheric mass density...
Loading historical data...
Loading historical data...
Loading historical data...
Loading historical data...
Loading historical data...
Loading historical data...
Loading historical data...

Documentation

Showing up to 5 results
|